Weather History for Meeker, CO

Change the Weather History Date:

Saturday, March 2, 2013

  Actual Average Record
Temperature  
Mean Temperature 28 °F 30 °F  
Max Temperature 46 °F 43 °F 63 °F (2009)
Min Temperature 10 °F 17 °F -17 °F (2002)
Degree Days  
Heating Degree Days 37 35  
Month to date heating degree days 72 70  
Since 1 July heating degree days 6084 5875  
Cooling Degree Days 0 0  
Month to date cooling degree days 0 0  
Year to date cooling degree days 0 0  
Moisture  
Dew Point 20 °F    
Average Humidity 69    
Maximum Humidity 92    
Minimum Humidity 45    
Precipitation  
Precipitation 0.00 in 0.03 in 0.14 in (2008)
Month to date precipitation 0.02 0.06  
Year to date precipitation 1.06 1.95  
Sea Level Pressure  
Sea Level Pressure 30.44 in    
Wind  
Wind Speed 1 mph (NE)    
Max Wind Speed 8 mph    
Max Gust Speed 9 mph    
Visibility 10 miles    
Events      
T = Trace of Precipitation, MM = Missing Value Source: NWS Daily Summary

Daily Weather History Graph

Daily Weather History Graph

Search for Another Location

Airport:

Trip Planner

Search our weather history database for the weather conditions in past years. The results will help you decide how hot, cold, wet, or windy it might be!

Date:

Astronomy

Mar. 02, 2013 Rise Set
Actual Time 6:42 AM MST 6:04 PM MST
Civil Twilight 6:15 AM MST 6:32 PM MST
Nautical Twilight 5:44 AM MST 7:03 PM MST
Astronomical Twilight 5:13 AM MST 7:34 PM MST
Moon 11:47 PM MST (3/2) 9:13 AM MST (3/2)
Length of Visible Light 12h 16m
Length of Day
11h 21m
Waning Gibbous, 73% of the Moon is Illuminated
Mar 2
Waning Gibbous
Mar 4
Last Quarter
Mar 11
New
Mar 19
First Quarter
Mar 27
Full

Hourly Weather History & Observations

Time (MST) Temp. Windchill Dew Point Humidity Pressure Visibility Wind Dir Wind Speed Gust Speed Precip Events Conditions
12:53 AM 18.0 °F 11.1 °F 14.0 °F 84% 30.56 in 10.0 mi NE 4.6 mph - N/A   Clear
2:53 AM 14.0 °F - 10.0 °F 84% 30.55 in 10.0 mi Calm Calm - N/A   Clear
3:53 AM 16.0 °F - 12.0 °F 84% 30.55 in 10.0 mi Calm Calm - N/A   Clear
5:53 AM 10.9 °F 4.7 °F 9.0 °F 92% 30.61 in 10.0 mi ENE 3.5 mph - N/A   Clear
6:53 AM 12.0 °F - 10.0 °F 92% 30.61 in 10.0 mi Calm Calm - N/A   Clear
7:53 AM 16.0 °F - 12.0 °F 84% 30.61 in 10.0 mi Calm Calm - N/A   Clear
8:53 AM 23.0 °F - 19.0 °F 85% 30.59 in 10.0 mi Calm Calm - N/A   Clear
9:53 AM 28.0 °F - 21.0 °F 75% 30.55 in 10.0 mi Calm Calm - N/A   Clear
10:53 AM 33.1 °F - 21.9 °F 64% 30.51 in 10.0 mi Calm Calm - N/A   Clear
11:53 AM 36.0 °F - 23.0 °F 59% 30.49 in 10.0 mi Calm Calm - N/A   Clear
12:53 PM 39.0 °F - 25.0 °F 57% 30.45 in 10.0 mi Calm Calm - N/A   Clear
1:53 PM 42.1 °F - 25.0 °F 51% 30.40 in 10.0 mi Calm Calm - N/A   Clear
2:53 PM 44.1 °F - 24.1 °F 45% 30.38 in 10.0 mi Calm Calm - N/A   Clear
3:53 PM 45.0 °F - 26.1 °F 48% 30.33 in 10.0 mi Calm Calm - N/A   Clear
4:53 PM 43.0 °F - 27.0 °F 53% 30.33 in 10.0 mi Calm Calm - N/A   Clear
6:53 PM 33.1 °F - 26.1 °F 75% 30.38 in 10.0 mi Calm Calm - N/A   Clear
7:53 PM 30.0 °F - 24.1 °F 79% 30.35 in 10.0 mi Calm Calm - N/A   Clear
8:53 PM 30.0 °F 26.5 °F 23.0 °F 75% 30.30 in 10.0 mi NE 3.5 mph - N/A   Clear
9:53 PM 28.0 °F 20.0 °F 21.9 °F 78% 30.26 in 10.0 mi NE 8.1 mph - N/A   Clear
10:53 PM 28.9 °F 23.9 °F 21.9 °F 75% 30.22 in 10.0 mi ENE 4.6 mph - N/A   Clear
11:53 PM 27.0 °F - 21.0 °F 78% 30.19 in 10.0 mi Calm Calm - N/A   Clear